Weather History for Thomasville, GA

Change the Weather History Date:

Sunday, March 16, 2014

  Actual Average (KVLD) Record (KVLD)
Temperature  
Mean Temperature 62 °F 60 °F  
Max Temperature 71 °F 73 °F 89 °F (2012)
Min Temperature 53 °F 47 °F 33 °F (1999)
Degree Days  
Heating Degree Days 3 6  
Month to date heating degree days 112  
Since 1 July heating degree days 1492  
Cooling Degree Days 0 1  
Month to date cooling degree days 16  
Year to date cooling degree days 26  
Growing Degree Days 12 (Base 50)    
Moisture  
Dew Point 57 °F    
Average Humidity 89    
Maximum Humidity 100    
Minimum Humidity 57    
Precipitation  
Precipitation 0.00 in 0.14 in 2.00 in (2005)
Month to date precipitation 2.61  
Year to date precipitation 11.34  
Sea Level Pressure  
Sea Level Pressure 29.85 in    
Wind  
Wind Speed 5 mph (South)    
Max Wind Speed 24 mph    
Max Gust Speed 34 mph    
Visibility 8 miles    
Events Rain , Thunderstorm    
T = Trace of Precipitation, MM = Missing Value Source: NWS Daily Summary

Daily Weather History Graph

Daily Weather History Graph

Search for Another Location

Airport:

Trip Planner

Search our weather history database for the weather conditions in past years. The results will help you decide how hot, cold, wet, or windy it might be!

Date:

Astronomy

Mar. 16, 2014 Rise Set
Actual Time 7:44 AM EDT 7:44 PM EDT
Civil Twilight 7:20 AM EDT 8:08 PM EDT
Nautical Twilight 6:52 AM EDT 8:36 PM EDT
Astronomical Twilight 6:24 AM EDT 9:04 PM EDT
Moon 7:57 PM EDT (3/16) 7:28 AM EDT (3/16)
Length of Visible Light 12h 48m
Length of Day
12h 00m
Full, 100% of the Moon is Illuminated
Mar 16
Full
Mar 16
Full
Mar 23
Last Quarter
Mar 30
New
Apr 7
First Quarter

Hourly Weather History & Observations

Time (EDT) Temp. Dew Point Humidity Pressure Visibility Wind Dir Wind Speed Gust Speed Precip Events Conditions
12:10 AM 57.2 °F 51.8 °F 82% 30.04 in 10.0 mi Calm Calm - N/A   Overcast
12:30 AM 57.2 °F 51.8 °F 82% 30.03 in 10.0 mi Calm Calm - N/A   Overcast
12:50 AM 57.2 °F 51.8 °F 82% 30.03 in 10.0 mi Calm Calm - N/A   Overcast
1:10 AM 55.4 °F 51.8 °F 88% 30.01 in 10.0 mi Calm Calm - N/A   Overcast
1:30 AM 55.4 °F 51.8 °F 88% 30.00 in 10.0 mi Calm Calm - N/A   Scattered Clouds
1:50 AM 55.4 °F 51.8 °F 88% 29.99 in 10.0 mi Calm Calm - N/A   Mostly Cloudy
2:10 AM 55.4 °F 53.6 °F 94% 29.99 in 10.0 mi SE 4.6 mph - N/A   Overcast
2:30 AM 55.4 °F 51.8 °F 88% 29.97 in 10.0 mi SE 8.1 mph - N/A   Overcast
2:50 AM 57.2 °F 51.8 °F 82% 29.97 in 10.0 mi Calm Calm - N/A   Overcast
3:10 AM 59.0 °F 51.8 °F 77% 29.97 in 10.0 mi Calm Calm - N/A   Overcast
3:30 AM 57.2 °F 51.8 °F 82% 29.95 in 10.0 mi Calm Calm - N/A   Overcast
3:50 AM 57.2 °F 51.8 °F 82% 29.92 in 10.0 mi ESE 5.8 mph - N/A   Mostly Cloudy
4:10 AM 55.4 °F 51.8 °F 88% 29.91 in 10.0 mi SE 5.8 mph - N/A   Scattered Clouds
4:30 AM 55.4 °F 51.8 °F 88% 29.90 in 10.0 mi SE 4.6 mph - N/A   Clear
4:50 AM 55.4 °F 51.8 °F 88% 29.90 in 10.0 mi South 4.6 mph - N/A   Clear
5:10 AM 55.4 °F 51.8 °F 88% 29.90 in 10.0 mi SW 3.5 mph - N/A   Clear
5:30 AM 53.6 °F 53.6 °F 100% 29.90 in 10.0 mi SW 3.5 mph - N/A   Clear
5:50 AM 55.4 °F 53.6 °F 94% 29.89 in 10.0 mi Calm Calm - N/A   Clear
6:10 AM 55.4 °F 53.6 °F 94% 29.89 in 10.0 mi Calm Calm - N/A   Clear
6:30 AM 53.6 °F 53.6 °F 100% 29.87 in 10.0 mi SSE 3.5 mph - N/A   Clear
6:50 AM 53.6 °F 53.6 °F 100% 29.87 in 10.0 mi Calm Calm - N/A   Clear
7:10 AM 53.6 °F 53.6 °F 100% 29.86 in 10.0 mi Calm Calm - N/A   Clear
7:30 AM 53.6 °F 53.6 °F 100% 29.86 in 10.0 mi SSE 3.5 mph - N/A   Clear
7:50 AM 53.6 °F 53.6 °F 100% 29.86 in 10.0 mi SSE 4.6 mph - N/A   Clear
8:10 AM 55.4 °F 53.6 °F 94% 29.86 in 10.0 mi SSE 4.6 mph - N/A   Clear
8:30 AM 55.4 °F 53.6 °F 94% 29.87 in 10.0 mi South 4.6 mph - N/A   Scattered Clouds
8:50 AM 59.0 °F 53.6 °F 82% 29.86 in 10.0 mi South 5.8 mph - N/A   Mostly Cloudy
9:10 AM 59.0 °F 51.8 °F 77% 29.84 in 10.0 mi South 9.2 mph - N/A   Mostly Cloudy
9:30 AM 60.8 °F 53.6 °F 77% 29.83 in 10.0 mi South 10.4 mph 17.3 mph N/A   Scattered Clouds
9:50 AM 62.6 °F 53.6 °F 72% 29.82 in 10.0 mi South 13.8 mph 17.3 mph N/A   Scattered Clouds
10:10 AM 64.4 °F 55.4 °F 73% 29.82 in 10.0 mi South 13.8 mph 21.9 mph N/A   Mostly Cloudy
10:30 AM 66.2 °F 57.2 °F 73% 29.82 in 10.0 mi SSW 21.9 mph - N/A   Mostly Cloudy
10:50 AM 68.0 °F 59.0 °F 73% 29.83 in 10.0 mi SSW 17.3 mph 23.0 mph N/A   Overcast
11:10 AM 69.8 °F 59.0 °F 68% 29.81 in 10.0 mi SSW 20.7 mph 28.8 mph N/A   Overcast
11:30 AM 69.8 °F 57.2 °F 64% 29.80 in 10.0 mi SSW 16.1 mph 28.8 mph N/A   Mostly Cloudy
11:50 AM 71.6 °F 55.4 °F 57% 29.81 in 10.0 mi SSW 23.0 mph 34.5 mph N/A   Scattered Clouds
12:10 PM 71.6 °F 55.4 °F 57% 29.80 in 10.0 mi SSW 21.9 mph 33.4 mph N/A   Mostly Cloudy
12:30 PM 71.6 °F 57.2 °F 60% 29.78 in 10.0 mi South 21.9 mph 28.8 mph N/A   Mostly Cloudy
12:50 PM 71.6 °F 59.0 °F 64% 29.77 in 10.0 mi South 17.3 mph 28.8 mph N/A   Mostly Cloudy
1:10 PM 71.6 °F 59.0 °F 64% 29.77 in 10.0 mi SSW 15.0 mph 31.1 mph N/A   Mostly Cloudy
1:30 PM 71.6 °F 59.0 °F 64% 29.76 in 10.0 mi SW 24.2 mph 34.5 mph N/A   Overcast
1:50 PM 64.4 °F 55.4 °F 73% 29.85 in 4.0 mi WNW 12.7 mph 32.2 mph N/A Rain , Thunderstorm Heavy Thunderstorms and Rain
2:10 PM 59.0 °F 59.0 °F 100% 29.85 in 1.2 mi WSW 11.5 mph - N/A Rain , Thunderstorm Heavy Thunderstorms and Rain
2:30 PM 59.0 °F 59.0 °F 100% 29.82 in 3.0 mi SW 8.1 mph - N/A Rain , Thunderstorm Thunderstorms and Rain
2:50 PM 60.8 °F 60.8 °F 100% 29.81 in 5.0 mi SSW 6.9 mph - N/A Rain , Thunderstorm Thunderstorms and Rain
3:10 PM 60.8 °F 60.8 °F 100% 29.79 in 7.0 mi SSW 5.8 mph - N/A Rain , Thunderstorm Thunderstorms and Rain
3:30 PM 60.8 °F 60.8 °F 100% 29.77 in 4.0 mi South 5.8 mph - N/A Rain , Thunderstorm Heavy Thunderstorms and Rain
3:50 PM 60.8 °F 60.8 °F 100% 29.78 in 5.0 mi SSW 9.2 mph - N/A Rain , Thunderstorm Thunderstorms and Rain
4:10 PM 60.8 °F 60.8 °F 100% 29.78 in 5.0 mi South 5.8 mph - N/A Rain , Thunderstorm Rain
4:30 PM 60.8 °F 60.8 °F 100% 29.78 in 4.0 mi South 3.5 mph - N/A Rain , Thunderstorm Thunderstorms and Rain
4:50 PM 59.0 °F 59.0 °F 100% 29.78 in 5.0 mi South 8.1 mph - N/A Rain , Thunderstorm Rain
5:10 PM 60.8 °F 60.8 °F 100% 29.76 in 4.0 mi SE 4.6 mph - N/A Rain , Thunderstorm Thunderstorms and Rain
5:30 PM 60.8 °F 60.8 °F 100% 29.76 in 3.0 mi SSE 5.8 mph - N/A Rain , Thunderstorm Heavy Thunderstorms and Rain
5:50 PM 60.8 °F 60.8 °F 100% 29.76 in 4.0 mi SSE 10.4 mph - N/A Rain , Thunderstorm Heavy Thunderstorms and Rain
6:10 PM 60.8 °F 60.8 °F 100% 29.77 in 5.0 mi SSE 9.2 mph - N/A Rain , Thunderstorm Heavy Thunderstorms and Rain
6:30 PM 60.8 °F 60.8 °F 100% 29.77 in 5.0 mi SSE 10.4 mph - N/A Rain , Thunderstorm Thunderstorms and Rain
6:50 PM 59.0 °F 59.0 °F 100% 29.77 in 4.0 mi SSE 12.7 mph - N/A Rain , Thunderstorm Heavy Thunderstorms and Rain
7:10 PM 60.8 °F 60.8 °F 100% 29.79 in 4.0 mi SSE 8.1 mph - N/A Rain , Thunderstorm Heavy Thunderstorms and Rain
7:30 PM 60.8 °F 60.8 °F 100% 29.80 in 5.0 mi SSE 6.9 mph - N/A Rain Heavy Rain
7:50 PM 60.8 °F 60.8 °F 100% 29.80 in 7.0 mi SSE 9.2 mph - N/A Rain Rain
8:10 PM 60.8 °F 60.8 °F 100% 29.80 in 5.0 mi SE 6.9 mph - N/A Rain Heavy Rain
8:30 PM 60.8 °F 60.8 °F 100% 29.78 in 5.0 mi SE 5.8 mph - N/A Rain Rain
8:50 PM 60.8 °F 60.8 °F 100% 29.78 in 7.0 mi SE 5.8 mph - N/A Rain Rain
9:10 PM 60.8 °F 60.8 °F 100% 29.79 in 10.0 mi SE 4.6 mph - N/A Rain Rain
9:30 PM 60.8 °F 60.8 °F 100% 29.81 in 4.0 mi SSE 4.6 mph - N/A Rain Heavy Rain
9:50 PM 60.8 °F 60.8 °F 100% 29.80 in 5.0 mi SE 3.5 mph - N/A Rain Heavy Rain
10:10 PM 60.8 °F 60.8 °F 100% 29.81 in 3.0 mi Calm Calm - N/A Rain Heavy Rain
10:30 PM 60.8 °F 60.8 °F 100% 29.80 in 5.0 mi East 3.5 mph - N/A Rain Heavy Rain
10:50 PM 59.0 °F 59.0 °F 100% 29.80 in 5.0 mi ESE 4.6 mph - N/A Rain Heavy Rain
11:10 PM 59.0 °F 59.0 °F 100% 29.80 in 5.0 mi SE 5.8 mph - N/A Rain Rain
11:30 PM 59.0 °F 59.0 °F 100% 29.82 in 7.0 mi South 3.5 mph - N/A Rain Rain
11:50 PM 59.0 °F 59.0 °F 100% 29.80 in 7.0 mi ESE 4.6 mph - N/A Rain Rain